Wise, VA

10:53 PM EST on December 14, 2017 (GMT -0500)
Lonesome Pine

Weather History for KLNP - March, 2013

Change the Weather History Date:

Wednesday, March 6, 2013

  Actual Average Record
Temperature  
Mean Temperature 28 °F -  
Max Temperature 30 °F 46 °F 60 °F (2008)
Min Temperature 26 °F 29 °F 8 °F (2015)
Degree Days  
Heating Degree Days 37    
Moisture  
Dew Point 28 °F    
Average Humidity 99    
Maximum Humidity 100    
Minimum Humidity 93    
Precipitation  
Precipitation 0.00 in - - ()
Sea Level Pressure  
Sea Level Pressure 29.91 in    
Wind  
Wind Speed 12 mph (WNW)    
Max Wind Speed 17 mph    
Max Gust Speed 29 mph    
Visibility 3 miles    
Events Snow    
Averages and records for this station are not official NWS values.
T = Trace of Precipitation, MM = Missing Value Source: NWS Daily Summary

Daily Weather History Graph

Daily Weather History Graph

Search for Another Location

Airport or City:

Trip Planner

Search our weather history database for the weather conditions in past years. The results will help you decide how hot, cold, wet, or windy it might be!

Date:

Astronomy

Mar. 06, 2013 Rise Set
Actual Time 6:53 AM EST 6:29 PM EST
Civil Twilight 6:27 AM EST 6:55 PM EST
Nautical Twilight 5:57 AM EST 7:25 PM EST
Astronomical Twilight 5:27 AM EST 7:55 PM EST
Moon 2:55 AM EST (3/6) 1:15 PM EST (3/6)
Length of Visible Light 12h 27m
Length of Day
11h 35m
Waning Crescent, 30% of the Moon is Illuminated
Mar 6
Waning Crescent
Mar 11
New
Mar 19
First Quarter
Mar 27
Full
Apr 3
Last Quarter

Hourly Weather History & Observations

Time (EST) Temp. Windchill Dew Point Humidity Pressure Visibility Wind Dir Wind Speed Gust Speed Precip Events Conditions
12:15 AM 30.2 °F 20.2 °F 30.2 °F 100% 29.68 in 4.0 mi West 12.7 mph 19.6 mph N/A Snow Light Snow
12:35 AM 30.2 °F 21.3 °F 30.2 °F 100% 29.68 in 2.0 mi West 10.4 mph 18.4 mph N/A Snow Light Snow
12:55 AM 30.2 °F 19.8 °F 30.2 °F 100% 29.67 in 1.2 mi West 13.8 mph 18.4 mph N/A Snow Light Snow
1:15 AM 28.4 °F 17.0 °F 28.4 °F 100% 29.68 in 1.2 mi West 15.0 mph 28.8 mph N/A Snow Light Snow
1:35 AM 28.4 °F 17.0 °F 28.4 °F 100% 29.68 in 4.0 mi West 15.0 mph 19.6 mph N/A Snow Light Snow
1:55 AM 28.4 °F 18.5 °F 28.4 °F 100% 29.69 in 2.5 mi West 11.5 mph 18.4 mph N/A Snow Light Snow
2:15 AM 28.4 °F 16.2 °F 28.4 °F 100% 29.68 in 1.5 mi West 17.3 mph 20.7 mph N/A Snow Light Snow
2:35 AM 28.4 °F 18.0 °F 26.6 °F 93% 29.68 in 3.0 mi West 12.7 mph 19.6 mph N/A Snow Light Snow
2:55 AM 26.6 °F 16.2 °F 26.6 °F 100% 29.68 in 0.5 mi West 11.5 mph 25.3 mph N/A Snow Light Snow
3:15 AM 26.6 °F 15.2 °F 26.6 °F 100% 29.68 in 0.8 mi West 13.8 mph 21.9 mph N/A Snow Light Snow
3:35 AM 26.6 °F 16.2 °F 26.6 °F 100% 29.68 in 2.5 mi West 11.5 mph 19.6 mph N/A Snow Light Snow
3:55 AM 26.6 °F 16.2 °F 26.6 °F 100% 29.68 in 1.8 mi West 11.5 mph 17.3 mph N/A Snow Light Snow
4:15 AM 26.6 °F 15.2 °F 26.6 °F 100% 29.69 in 1.0 mi West 13.8 mph 18.4 mph N/A Snow Light Snow
4:35 AM 26.6 °F 14.7 °F 24.8 °F 93% 29.69 in 3.0 mi West 15.0 mph 24.2 mph N/A Snow Light Snow
4:55 AM 26.6 °F 14.3 °F 24.8 °F 93% 29.70 in 4.0 mi West 16.1 mph 24.2 mph N/A Snow Light Snow
5:15 AM 26.6 °F 15.7 °F 24.8 °F 93% 29.70 in 3.0 mi West 12.7 mph 19.6 mph N/A Snow Light Snow
5:35 AM 26.6 °F 14.7 °F 24.8 °F 93% 29.70 in 4.0 mi West 15.0 mph 20.7 mph N/A Snow Light Snow
5:55 AM 26.6 °F 15.2 °F 26.6 °F 100% 29.70 in 4.0 mi West 13.8 mph 19.6 mph N/A Snow Light Snow
6:15 AM 26.6 °F 15.7 °F 26.6 °F 100% 29.71 in 3.0 mi West 12.7 mph 17.3 mph N/A Snow Light Snow
6:35 AM 26.6 °F 15.7 °F 26.6 °F 100% 29.73 in 1.8 mi West 12.7 mph 20.7 mph N/A Snow Light Snow
6:55 AM 26.6 °F 16.2 °F 26.6 °F 100% 29.74 in 1.2 mi West 11.5 mph 17.3 mph N/A Snow Light Snow
7:15 AM 26.6 °F 15.7 °F 26.6 °F 100% 29.75 in 4.0 mi WNW 12.7 mph 18.4 mph N/A Snow Light Snow
7:35 AM 26.6 °F 16.2 °F 26.6 °F 100% 29.76 in 4.0 mi West 11.5 mph 19.6 mph N/A Snow Light Snow
7:55 AM 26.6 °F 15.7 °F 26.6 °F 100% 29.77 in 2.5 mi West 12.7 mph 18.4 mph N/A Snow Light Snow
8:15 AM 26.6 °F 16.8 °F 26.6 °F 100% 29.78 in 0.5 mi West 10.4 mph 17.3 mph N/A Snow Light Snow
8:35 AM 26.6 °F 17.5 °F 26.6 °F 100% 29.81 in 0.8 mi West 9.2 mph - N/A Snow Light Snow
8:55 AM 28.4 °F 19.1 °F 26.6 °F 93% 29.82 in 0.8 mi WNW 10.4 mph 21.9 mph N/A Snow Light Snow
9:15 AM 28.4 °F 19.7 °F 26.6 °F 93% 29.83 in 1.0 mi West 9.2 mph 19.6 mph N/A Snow Light Snow
9:35 AM 28.4 °F 18.0 °F 28.4 °F 100% 29.84 in 1.0 mi West 12.7 mph - N/A Snow Light Snow
9:55 AM 28.4 °F 16.6 °F 26.6 °F 93% 29.85 in 1.8 mi West 16.1 mph 23.0 mph N/A Snow Light Snow
10:15 AM 28.4 °F 16.6 °F 26.6 °F 93% 29.87 in 3.0 mi West 16.1 mph 23.0 mph N/A Snow Light Snow
10:35 AM 28.4 °F 18.0 °F 26.6 °F 93% 29.89 in 2.5 mi West 12.7 mph 24.2 mph N/A   Overcast
10:55 AM 28.4 °F 16.6 °F 28.4 °F 100% 29.89 in 2.5 mi WNW 16.1 mph 21.9 mph N/A   Overcast
11:15 AM 28.4 °F 17.0 °F 28.4 °F 100% 29.90 in 3.0 mi West 15.0 mph 21.9 mph N/A   Overcast
11:35 AM 28.4 °F 18.0 °F 28.4 °F 100% 29.91 in 4.0 mi West 12.7 mph 21.9 mph N/A   Overcast
11:55 AM 28.4 °F 17.5 °F 28.4 °F 100% 29.91 in 3.0 mi WNW 13.8 mph 20.7 mph N/A   Overcast
12:15 PM 28.4 °F 18.5 °F 28.4 °F 100% 29.93 in 4.0 mi WNW 11.5 mph 24.2 mph N/A   Overcast
12:35 PM 28.4 °F 16.6 °F 28.4 °F 100% 29.94 in 3.0 mi WNW 16.1 mph 20.7 mph N/A   Overcast
12:55 PM 28.4 °F 17.0 °F 28.4 °F 100% 29.95 in 2.5 mi WNW 15.0 mph 21.9 mph N/A   Overcast
1:15 PM 28.4 °F 16.6 °F 28.4 °F 100% 29.96 in 3.0 mi WNW 16.1 mph 20.7 mph N/A   Overcast
1:35 PM 28.4 °F 18.0 °F 28.4 °F 100% 29.95 in 2.5 mi WNW 12.7 mph 20.7 mph N/A   Overcast
1:55 PM 28.4 °F 18.5 °F 28.4 °F 100% 29.97 in 2.5 mi West 11.5 mph 20.7 mph N/A   Overcast
2:15 PM 28.4 °F 17.5 °F 28.4 °F 100% 29.97 in 2.5 mi West 13.8 mph 19.6 mph N/A   Overcast
2:35 PM 28.4 °F 17.5 °F 28.4 °F 100% 29.98 in 2.5 mi WNW 13.8 mph 20.7 mph N/A   Overcast
2:55 PM 28.4 °F 17.0 °F 28.4 °F 100% 29.99 in 2.0 mi West 15.0 mph - N/A   Overcast
3:15 PM 28.4 °F 17.0 °F 28.4 °F 100% 30.01 in 1.0 mi WNW 15.0 mph 18.4 mph N/A   Overcast
3:35 PM 28.4 °F 18.0 °F 28.4 °F 100% 30.02 in 0.8 mi WNW 12.7 mph - N/A   Overcast
3:55 PM 28.4 °F 19.1 °F 28.4 °F 100% 30.03 in 1.0 mi WNW 10.4 mph 17.3 mph N/A   Overcast
4:15 PM 28.4 °F 19.7 °F 28.4 °F 100% 30.04 in 0.8 mi WNW 9.2 mph 18.4 mph N/A   Overcast
4:35 PM 28.4 °F 21.2 °F 28.4 °F 100% 30.05 in 0.8 mi NW 6.9 mph - N/A   Overcast
4:55 PM 28.4 °F 20.4 °F 28.4 °F 100% 30.06 in 0.8 mi WNW 8.1 mph - N/A   Overcast
5:15 PM 28.4 °F 18.5 °F 28.4 °F 100% 30.07 in 1.2 mi WNW 11.5 mph - N/A   Overcast
5:35 PM 28.4 °F 21.2 °F 28.4 °F 100% 30.08 in 1.5 mi WNW 6.9 mph - N/A   Overcast
5:55 PM 28.4 °F 20.4 °F 28.4 °F 100% 30.09 in 1.8 mi WNW 8.1 mph - N/A   Overcast
6:15 PM 28.4 °F 19.1 °F 28.4 °F 100% 30.09 in 2.0 mi WNW 10.4 mph - N/A   Overcast
6:35 PM 28.4 °F 20.4 °F 28.4 °F 100% 30.10 in 1.8 mi WNW 8.1 mph - N/A   Overcast
6:55 PM 28.4 °F 21.2 °F 28.4 °F 100% 30.10 in 1.8 mi WNW 6.9 mph - N/A   Overcast
7:15 PM 28.4 °F 21.2 °F 28.4 °F 100% 30.11 in 2.5 mi WNW 6.9 mph - N/A   Overcast
7:35 PM 28.4 °F 20.4 °F 28.4 °F 100% 30.12 in 2.5 mi WNW 8.1 mph - N/A   Overcast
7:55 PM 28.4 °F 19.7 °F 28.4 °F 100% 30.12 in 2.5 mi West 9.2 mph - N/A   Overcast
8:15 PM 28.4 °F 19.7 °F 28.4 °F 100% 30.12 in 2.5 mi WNW 9.2 mph - N/A   Overcast
8:35 PM 28.4 °F 20.4 °F 28.4 °F 100% 30.13 in 3.0 mi WNW 8.1 mph - N/A   Overcast
8:55 PM 28.4 °F 22.2 °F 28.4 °F 100% 30.14 in 3.0 mi WNW 5.8 mph - N/A   Overcast
9:35 PM 28.4 °F 20.4 °F 28.4 °F 100% 30.14 in 4.0 mi WNW 8.1 mph - N/A   Overcast
9:55 PM 28.4 °F 21.2 °F 28.4 °F 100% 30.15 in 4.0 mi WNW 6.9 mph - N/A   Overcast
10:15 PM 28.4 °F 22.2 °F 28.4 °F 100% 30.15 in 4.0 mi WNW 5.8 mph - N/A   Overcast
10:35 PM 28.4 °F 22.2 °F 28.4 °F 100% 30.15 in 5.0 mi WNW 5.8 mph - N/A   Overcast
10:55 PM 28.4 °F 23.3 °F 28.4 °F 100% 30.15 in 5.0 mi NW 4.6 mph - N/A   Overcast
11:15 PM 28.4 °F 22.2 °F 28.4 °F 100% 30.15 in 7.0 mi NNW 5.8 mph - N/A   Overcast
11:35 PM 28.4 °F 21.2 °F 28.4 °F 100% 30.15 in 7.0 mi NW 6.9 mph - N/A   Overcast
11:55 PM 28.4 °F 22.2 °F 28.4 °F 100% 30.15 in 7.0 mi NW 5.8 mph - N/A   Overcast